RH
46 50 53 53 54 50 50 54 67 90 81 79 99 82 79 79 99 99 100 99 98 99 98 97 92 88 83 67 70 76 71 75 79 66 53 52 51 48
58 53 55 57 54 53 54 62 79 85 92 80 83 88 87 87 88 96 100 98 97 86 95 95 93 89 84 59 60 71 72 83 85 74 46 39 44 46
55 58 58 53 51 52 54 62 72 84 91 94 98 98 98 89 90 93 99 99 100 95 93 97 89 91 85 63 54 49 54 72 81 91 99 80 71 48
61 58 53 52 52 55 58 63 67 77 96 99 99 99 98 96 92 94 97 95 99 99 100 97 90 94 83 58 32 24 37 60 78 91 94 97 90 95
56 52 53 56 57 60 63 68 71 72 86 100 100 99 97 91 93 91 92 99 99 100 99 96 95 95 73 25 13 11 11 58 78 91 99 94 95 77
55 55 57 58 60 66 70 73 76 76 90 99 99 98 94 95 95 95 98 99 100 100 98 99 96 83 32 15 12 13 9 35 77 87 100 100 99 99
59 59 61 62 62 66 67 74 78 84 96 98 96 95 94 93 95 99 100 100 100 98 96 90 80 32 18 15 15 11 10 12 64 84 98 100 100 100
61 61 61 63 63 68 75 90 91 91 94 96 93 94 96 95 97 99 100 97 99 64 62 46 24 17 17 15 13 12 9 9 21 74 86 99 100 100
62 60 60 66 72 75 88 96 94 89 88 87 90 91 97 95 98 97 98 99 85 50 31 19 17 14 17 16 15 14 11 8 9 25 74 85 96 100
64 65 66 70 80 90 98 93 78 36 26 71 90 94 97 98 100 90 86 66 41 28 21 15 15 14 16 16 15 16 17 18 10 8 14 56 77 79
68 69 70 75 86 97 99 95 36 16 16 16 17 24 40 47 38 36 32 30 23 16 14 14 14 16 17 17 19 21 21 21 21 19 9 7 15 43
71 72 76 85 94 98 100 85 22 22 20 16 14 13 13 15 18 18 18 18 15 13 12 16 16 16 21 23 24 24 25 26 25 24 24 23 16 10
75 74 77 86 99 100 100 49 24 24 19 17 19 15 13 13 12 11 12 13 14 13 14 15 17 21 22 20 20 21 23 26 28 27 27 26 24 23
77 80 81 88 91 84 56 20 21 25 19 20 22 24 21 19 20 20 19 19 18 17 16 16 28 40 32 31 29 24 16 18 22 26 27 26 25 24
86 91 90 91 73 39 19 18 21 20 20 22 25 25 23 22 24 25 25 23 22 20 30 43 50 55 45 34 27 22 19 19 18 19 20 21 22 24
97 98 95 84 55 22 21 22 22 25 22 19 26 28 26 24 25 25 25 25 24 25 32 42 42 34 32 31 29 28 26 26 25 25 25 25 26 26
100 100 98 95 55 26 23 24 28 30 26 22 20 22 23 22 24 25 24 25 28 28 36 45 40 38 39 40 40 37 35 33 32 32 32 32 32 33
99 100 100 99 87 44 23 23 29 28 29 26 21 23 23 21 21 24 25 25 27 30 32 40 43 42 45 43 43 49 53 41 39 40 41 41 41 43
99 100 100 99 99 90 47 22 22 25 27 28 24 24 24 23 22 22 23 25 27 28 30 32 39 40 45 42 40 47 60 73 66 49 46 61 72 69
100 99 99 100 100 99 97 49 23 22 22 22 23 23 23 21 22 22 23 22 23 25 27 26 28 28 30 34 35 38 64 82 81 69 74 76 74 74
99 100 100 100 99 99 98 83 40 34 34 29 24 25 23 21 19 19 21 23 25 26 25 21 21 30 45 34 37 48 81 80 76 74 67 66 70 72
100 100 99 99 99 99 99 98 55 41 39 34 30 28 27 25 22 20 21 22 23 25 28 30 32 52 55 36 43 78 90 85 77 65 63 68 76 81
99 100 100 99 100 99 99 99 78 41 30 28 27 27 27 30 28 29 29 28 34 47 37 38 43 76 66 48 52 89 93 91 85 81 78 78 79 78
Wind_Speed
19 19 18 18 19 19 20 19 16 9 6 7 14 14 13 14 13 14 15 14 14 15 16 16 16 21 21 19 14 13 13 11 11 13 15 16 17 20
21 20 20 19 18 19 18 16 17 17 13 14 16 18 16 16 15 14 14 15 17 18 17 17 17 21 19 14 13 11 10 9 11 13 15 16 16 17
23 21 19 19 19 18 18 17 17 17 16 16 18 19 19 16 16 16 16 16 16 16 17 15 17 22 17 14 12 11 10 9 9 11 12 12 9 12
21 20 20 19 18 18 19 18 19 18 18 18 21 19 16 15 16 17 17 17 15 15 14 17 18 17 14 13 13 11 11 7 7 7 10 9 3 8
21 20 20 17 17 18 19 20 21 19 18 18 17 17 18 18 18 18 18 17 16 16 16 16 19 16 13 11 11 9 9 7 4 4 3 4 2 6
21 20 18 17 18 19 19 20 21 19 16 15 16 19 17 17 17 16 15 15 15 15 15 18 14 14 14 11 10 8 6 6 7 5 2 11 8 11
19 18 18 19 19 20 20 20 18 15 13 12 15 17 16 14 14 12 11 12 12 14 16 12 12 12 11 11 9 7 6 8 9 10 5 6 16 12
19 18 19 18 17 17 16 15 14 12 12 13 14 14 13 13 13 11 10 11 11 10 10 12 11 9 9 9 7 5 5 7 10 12 11 6 7 8
18 17 17 17 16 15 14 12 12 12 13 14 12 12 14 12 12 12 11 13 13 10 9 10 8 8 7 6 5 4 4 4 8 11 14 12 10 6
17 16 15 15 14 13 13 12 13 13 13 15 14 14 14 12 14 14 14 13 11 9 9 9 6 7 6 5 5 3 4 3 3 7 10 13 14 12
17 16 14 14 13 13 15 13 13 13 12 13 13 14 14 14 13 12 12 11 10 8 8 7 5 4 5 5 5 4 4 3 3 2 4 8 12 13
18 16 14 14 13 13 15 14 14 13 12 11 11 11 11 12 12 12 10 10 9 6 7 7 5 3 2 3 3 4 4 3 4 3 2 3 5 7
20 17 15 14 14 16 15 15 14 14 12 12 11 10 11 11 11 11 9 10 10 8 4 6 3 4 3 3 4 4 5 4 5 5 4 5 5 6
21 18 16 14 15 15 15 17 15 15 14 14 13 12 12 10 9 9 9 9 8 7 7 6 4 3 4 5 6 5 6 5 6 7 8 8 8 8
22 19 17 15 16 17 17 16 17 17 16 16 16 15 13 12 11 11 10 10 9 9 8 6 5 4 4 6 7 7 8 7 8 7 7 7 8 9
21 19 18 17 17 17 18 19 18 17 17 17 17 16 15 13 13 12 12 11 11 11 9 7 6 6 6 7 8 9 8 7 7 6 5 6 7 8
20 19 20 21 21 21 21 20 19 20 19 18 18 17 15 14 15 14 14 14 13 12 12 10 9 8 8 8 8 9 10 11 11 11 11 11 11 11
24 23 24 23 24 22 22 22 23 22 21 20 18 17 16 15 15 15 15 15 15 15 15 13 12 12 11 10 10 9 10 11 12 12 12 12 11 11
27 24 23 24 24 24 23 23 23 22 21 20 19 18 17 16 17 16 16 17 17 17 17 16 15 14 15 15 14 12 12 13 15 15 14 14 14 13
27 26 25 24 24 26 25 25 23 22 22 22 22 21 18 18 19 19 18 18 17 17 18 18 17 16 15 17 17 16 16 16 15 15 17 18 18 17
26 25 23 21 23 24 24 25 25 24 23 23 23 23 20 21 21 20 20 18 18 19 20 19 14 15 18 19 20 19 18 15 15 16 17 19 18 20
25 23 22 22 21 22 23 24 26 25 25 25 25 24 23 22 21 21 20 20 21 20 20 18 18 19 19 20 20 20 18 18 15 16 18 19 19 17
24 24 23 23 23 21 21 23 27 26 26 25 25 24 23 23 22 21 21 21 21 22 22 22 22 22 22 22 22 21 19 18 19 20 20 17 18 19
Wind_Direction
228 238 245 255 260 262 259 256 250 251 262 239 255 284 288 289 282 276 274 280 287 283 291 291 302 307 310 305 303 294 283 274 270 282 284 276 258 241
235 243 253 258 267 268 269 266 257 247 246 261 269 281 284 289 289 284 279 280 280 286 283 291 302 313 308 304 301 294 288 283 293 308 296 282 266 242
245 251 254 262 263 267 269 265 264 263 267 272 267 270 285 283 279 281 278 282 283 285 285 288 308 314 302 304 303 294 282 280 293 318 324 317 282 232
247 251 254 256 261 263 263 260 261 259 258 260 261 273 270 274 274 274 277 278 285 280 285 301 313 306 299 305 303 297 284 279 287 325 325 325 246 199
248 252 251 254 259 259 261 261 258 261 256 257 262 266 272 273 271 271 273 273 275 277 291 296 296 292 299 299 295 293 282 267 264 301 345 316 309 184
245 249 250 254 255 255 258 262 268 268 267 258 255 265 268 268 269 270 271 272 271 275 284 288 284 293 301 303 306 300 281 259 234 236 80 125 165 146
246 248 251 251 255 257 262 266 268 263 255 255 256 260 261 262 265 267 267 265 271 277 280 275 280 287 291 295 312 312 286 248 230 224 202 111 138 146
246 252 257 261 262 260 260 254 256 255 249 243 246 257 258 254 255 260 258 266 269 282 270 276 278 281 290 286 304 311 281 245 231 227 227 194 174 142
250 255 262 261 260 260 261 249 240 238 244 247 242 243 244 245 250 248 251 254 252 263 276 279 280 283 286 305 310 309 292 255 234 230 229 232 212 190
252 256 256 258 259 258 260 241 238 238 240 242 235 230 235 232 238 245 244 246 253 258 265 270 280 274 271 273 278 299 304 316 256 235 230 231 237 236
247 251 253 256 253 244 247 237 238 240 238 237 239 241 242 242 245 243 240 237 239 244 240 242 254 271 278 283 285 279 264 262 273 248 217 222 227 231
244 246 250 251 245 236 240 232 235 238 239 238 233 228 226 224 225 229 228 233 231 232 224 222 225 210 241 263 260 263 262 258 246 236 222 207 207 211
245 247 249 250 242 237 228 233 230 235 232 230 226 217 218 215 214 220 220 223 223 213 210 198 214 217 237 301 318 309 289 269 253 242 223 233 232 225
246 248 247 242 231 231 228 232 232 234 230 225 222 220 218 212 213 215 214 215 218 215 215 201 207 230 250 275 288 293 290 283 264 249 247 246 245 243
237 238 241 236 228 226 230 231 233 230 229 225 223 224 224 217 215 218 217 216 215 212 207 214 240 259 272 281 288 290 293 288 279 263 256 249 243 240
228 233 237 237 236 238 229 234 233 233 231 228 225 225 223 221 225 225 224 224 224 220 223 241 250 260 274 285 291 294 292 282 284 283 277 264 256 254
228 228 234 236 232 229 231 233 232 231 230 226 225 227 224 226 229 229 230 229 231 230 231 240 245 251 260 273 282 284 287 286 283 278 274 272 271 267
230 228 233 237 236 234 234 234 235 234 229 228 225 226 228 230 233 233 234 235 236 240 243 245 252 255 263 270 274 286 289 282 279 275 274 274 275 276
230 235 238 243 240 236 235 239 238 238 236 232 228 226 228 228 234 237 239 240 240 243 246 249 253 258 266 271 270 279 292 284 276 273 271 273 280 284
229 235 239 244 244 243 239 235 238 237 232 230 230 232 230 234 238 241 243 245 247 247 250 252 254 259 269 271 268 277 293 288 275 265 268 273 276 278
230 238 243 247 248 249 247 233 237 238 236 235 235 234 233 236 241 244 246 246 249 249 251 256 260 258 260 265 266 281 289 282 273 268 268 270 277 280
238 244 250 251 251 249 246 235 234 235 236 235 236 237 237 237 243 245 245 247 252 255 259 257 255 261 263 263 269 281 281 283 271 267 264 270 277 273
249 250 250 251 252 252 249 240 232 237 237 236 238 238 240 240 242 244 246 248 252 257 256 253 256 262 261 261 268 275 273 273 276 276 273 266 264 267